Time,TemperatureF,DewpointF,PressureIn,WindDirection,WindDirectionDegrees,WindSpeedMPH,WindSpeedGustMPH,Humidity,HourlyPrecipIn,Conditions,Clouds,dailyrainin,SoftwareType,DateUTC
2013-05-09 00:06:00,58.7,57.0,29.01,NE,40,4.0,4.0,95,0.01,,,0.00,weatherlink.com 1.10,2013-05-09 04:06:00,
2013-05-09 00:21:00,58.5,57.0,29.01,ENE,77,2.0,3.0,95,0.01,,,0.00,weatherlink.com 1.10,2013-05-09 04:21:00,
2013-05-09 00:36:00,58.5,57.0,29.01,NE,44,1.0,3.0,95,0.01,,,0.00,weatherlink.com 1.10,2013-05-09 04:36:00,
2013-05-09 00:51:00,58.4,57.0,29.00,East,97,0.0,2.0,95,0.01,,,0.00,weatherlink.com 1.10,2013-05-09 04:51:00,
2013-05-09 01:06:00,58.3,57.0,29.00,East,80,0.0,1.0,95,0.00,,,0.00,weatherlink.com 1.10,2013-05-09 05:06:00,
2013-05-09 01:21:00,58.2,57.0,28.99,East,80,0.0,1.0,95,0.00,,,0.00,weatherlink.com 1.10,2013-05-09 05:21:00,
2013-05-09 01:36:00,58.2,57.0,28.99,East,80,0.0,1.0,96,0.00,,,0.00,weatherlink.com 1.10,2013-05-09 05:36:00,
2013-05-09 01:51:00,58.2,57.0,28.99,NE,50,0.0,1.0,96,0.00,,,0.00,weatherlink.com 1.10,2013-05-09 05:51:00,
2013-05-09 02:06:00,58.1,57.0,28.99,NE,50,0.0,1.0,96,0.00,,,0.00,weatherlink.com 1.10,2013-05-09 06:06:00,
2013-05-09 02:21:00,58.1,57.0,28.98,NE,49,0.0,1.0,96,0.00,,,0.00,weatherlink.com 1.10,2013-05-09 06:21:00,
2013-05-09 02:36:00,57.8,57.0,28.98,NE,49,0.0,1.0,96,0.00,,,0.00,weatherlink.com 1.10,2013-05-09 06:36:00,
2013-05-09 02:51:00,57.8,57.0,28.98,NE,49,0.0,1.0,96,0.00,,,0.00,weatherlink.com 1.10,2013-05-09 06:51:00,
2013-05-09 03:06:00,57.8,57.0,28.98,NE,49,0.0,1.0,96,0.00,,,0.00,weatherlink.com 1.10,2013-05-09 07:06:00,
2013-05-09 03:21:00,57.7,57.0,28.98,NE,49,0.0,0.0,96,0.00,,,0.00,weatherlink.com 1.10,2013-05-09 07:21:00,
2013-05-09 03:36:00,57.5,56.0,28.97,NE,49,0.0,0.0,96,0.00,,,0.00,weatherlink.com 1.10,2013-05-09 07:36:00,
2013-05-09 03:51:00,57.2,56.0,28.97,NE,49,0.0,0.0,96,0.00,,,0.00,weatherlink.com 1.10,2013-05-09 07:51:00,
2013-05-09 04:06:00,56.5,55.0,28.96,NE,49,0.0,0.0,95,0.00,,,0.00,weatherlink.com 1.10,2013-05-09 08:06:00,
2013-05-09 04:21:00,55.8,54.0,28.96,NNE,29,0.0,2.0,95,0.00,,,0.00,weatherlink.com 1.10,2013-05-09 08:21:00,
2013-05-09 04:36:00,56.1,55.0,28.96,NNE,29,1.0,1.0,96,0.00,,,0.00,weatherlink.com 1.10,2013-05-09 08:36:00,
2013-05-09 04:51:00,56.4,56.0,28.96,NNE,29,0.0,0.0,97,0.00,,,0.00,weatherlink.com 1.10,2013-05-09 08:51:00,
2013-05-09 05:06:00,56.4,56.0,28.96,NNE,29,0.0,1.0,97,0.00,,,0.00,weatherlink.com 1.10,2013-05-09 09:06:00,
2013-05-09 05:21:00,56.3,56.0,28.95,NNE,29,0.0,1.0,97,0.00,,,0.00,weatherlink.com 1.10,2013-05-09 09:21:00,
2013-05-09 05:36:00,56.4,56.0,28.95,NNE,29,0.0,1.0,97,0.00,,,0.00,weatherlink.com 1.10,2013-05-09 09:36:00,
2013-05-09 05:51:00,56.3,56.0,28.96,NNE,29,0.0,0.0,97,0.00,,,0.00,weatherlink.com 1.10,2013-05-09 09:51:00,
2013-05-09 06:06:00,56.3,56.0,28.96,NNE,29,0.0,1.0,97,0.00,,,0.00,weatherlink.com 1.10,2013-05-09 10:06:00,
2013-05-09 06:21:00,56.4,56.0,28.96,NNE,29,0.0,0.0,97,0.00,,,0.00,weatherlink.com 1.10,2013-05-09 10:21:00,
2013-05-09 06:36:00,56.7,56.0,28.96,NNE,29,0.0,0.0,97,0.00,,,0.00,weatherlink.com 1.10,2013-05-09 10:36:00,
2013-05-09 06:51:00,57.4,57.0,28.95,NNE,13,0.0,3.0,97,0.00,,,0.00,weatherlink.com 1.10,2013-05-09 10:51:00,
2013-05-09 07:06:00,59.3,57.0,28.95,NE,36,2.0,3.0,93,0.00,,,0.00,weatherlink.com 1.10,2013-05-09 11:06:00,
2013-05-09 07:21:00,60.3,57.0,28.96,ENE,67,0.0,4.0,90,0.00,,,0.00,weatherlink.com 1.10,2013-05-09 11:21:00,
2013-05-09 07:36:00,60.5,57.0,28.97,ENE,59,2.0,4.0,89,0.00,,,0.00,weatherlink.com 1.10,2013-05-09 11:36:00,
2013-05-09 07:51:00,59.9,56.0,28.97,SW,219,0.0,3.0,88,0.00,,,0.00,weatherlink.com 1.10,2013-05-09 11:51:00,
2013-05-09 08:06:00,61.5,57.0,28.96,ENE,65,3.0,7.0,85,0.00,,,0.00,weatherlink.com 1.10,2013-05-09 12:06:00,
2013-05-09 08:21:00,62.7,58.0,28.96,NNE,24,1.0,7.0,85,0.00,,,0.00,weatherlink.com 1.10,2013-05-09 12:21:00,
2013-05-09 08:36:00,61.3,57.0,28.97,East,86,3.0,5.0,84,0.00,,,0.00,weatherlink.com 1.10,2013-05-09 12:36:00,
2013-05-09 08:51:00,61.0,56.0,28.97,NE,53,2.0,5.0,83,0.00,,,0.00,weatherlink.com 1.10,2013-05-09 12:51:00,
2013-05-09 09:06:00,61.8,56.0,28.96,ENE,57,3.0,7.0,82,0.00,,,0.00,weatherlink.com 1.10,2013-05-09 13:06:00,
2013-05-09 09:21:00,63.7,57.0,28.96,ENE,71,2.0,5.0,80,0.00,,,0.00,weatherlink.com 1.10,2013-05-09 13:21:00,
2013-05-09 09:36:00,63.1,57.0,28.95,ENE,57,2.0,5.0,80,0.00,,,0.00,weatherlink.com 1.10,2013-05-09 13:36:00,
2013-05-09 09:51:00,62.2,57.0,28.95,ENE,69,1.0,4.0,82,0.00,,,0.00,weatherlink.com 1.10,2013-05-09 13:51:00,
2013-05-09 10:06:00,62.5,57.0,28.95,ENE,59,2.0,5.0,82,0.00,,,0.00,weatherlink.com 1.10,2013-05-09 14:06:00,
2013-05-09 10:21:00,63.2,56.0,28.95,ENE,68,2.0,5.0,78,0.00,,,0.00,weatherlink.com 1.10,2013-05-09 14:21:00,
2013-05-09 10:36:00,62.9,57.0,28.95,ENE,64,0.0,5.0,80,0.00,,,0.00,weatherlink.com 1.10,2013-05-09 14:36:00,
2013-05-09 10:51:00,64.0,57.0,28.94,SE,133,2.0,6.0,77,0.00,,,0.00,weatherlink.com 1.10,2013-05-09 14:51:00,
2013-05-09 11:07:00,65.1,57.0,28.94,ENE,64,2.0,7.0,74,0.00,,,0.00,weatherlink.com 1.10,2013-05-09 15:07:00,
2013-05-09 11:22:00,65.1,57.0,28.94,North,9,1.0,4.0,75,0.00,,,0.00,weatherlink.com 1.10,2013-05-09 15:22:00,
2013-05-09 11:37:00,64.9,57.0,28.93,East,84,1.0,8.0,75,0.00,,,0.00,weatherlink.com 1.10,2013-05-09 15:37:00,
2013-05-09 11:52:00,67.6,58.0,28.93,East,83,2.0,6.0,72,0.00,,,0.00,weatherlink.com 1.10,2013-05-09 15:52:00,
2013-05-09 12:07:00,68.5,57.0,28.92,ENE,76,3.0,9.0,68,0.00,,,0.00,weatherlink.com 1.10,2013-05-09 16:07:00,
2013-05-09 12:22:00,67.9,57.0,28.92,ESE,117,2.0,7.0,69,0.00,,,0.00,weatherlink.com 1.10,2013-05-09 16:22:00,
2013-05-09 12:37:00,67.5,56.0,28.92,SSW,202,0.0,5.0,67,0.00,,,0.00,weatherlink.com 1.10,2013-05-09 16:37:00,
2013-05-09 12:52:00,67.3,58.0,28.91,ENE,78,1.0,7.0,71,0.00,,,0.00,weatherlink.com 1.10,2013-05-09 16:52:00,
2013-05-09 13:07:00,67.1,57.0,28.91,SSW,206,0.0,7.0,69,0.00,,,0.00,weatherlink.com 1.10,2013-05-09 17:07:00,
2013-05-09 13:22:00,66.6,57.0,28.90,South,179,0.0,4.0,71,0.00,,,0.00,weatherlink.com 1.10,2013-05-09 17:22:00,
2013-05-09 13:37:00,66.2,58.0,28.91,SE,138,1.0,3.0,74,0.00,,,0.00,weatherlink.com 1.10,2013-05-09 17:37:00,
2013-05-09 13:52:00,65.8,57.0,28.91,ESE,117,2.0,4.0,72,0.00,,,0.00,weatherlink.com 1.10,2013-05-09 17:52:00,
2013-05-09 14:07:00,62.0,57.0,28.91,SW,215,1.0,7.0,83,0.03,,,0.03,weatherlink.com 1.10,2013-05-09 18:07:00,
2013-05-09 14:22:00,59.9,57.0,28.90,South,170,0.0,3.0,90,0.05,,,0.05,weatherlink.com 1.10,2013-05-09 18:22:00,
2013-05-09 14:37:00,59.9,58.0,28.90,SW,232,0.0,2.0,93,0.07,,,0.07,weatherlink.com 1.10,2013-05-09 18:37:00,
2013-05-09 14:52:00,60.5,59.0,28.90,SW,229,0.0,3.0,93,0.07,,,0.07,weatherlink.com 1.10,2013-05-09 18:52:00,
2013-05-09 15:07:00,61.3,58.0,28.90,SW,226,0.0,2.0,90,0.04,,,0.07,weatherlink.com 1.10,2013-05-09 19:07:00,
2013-05-09 15:22:00,61.5,59.0,28.89,SSW,196,3.0,6.0,91,0.02,,,0.07,weatherlink.com 1.10,2013-05-09 19:22:00,
2013-05-09 15:37:00,59.9,57.0,28.89,WSW,238,0.0,2.0,89,0.02,,,0.09,weatherlink.com 1.10,2013-05-09 19:37:00,
2013-05-09 15:52:00,60.8,58.0,28.88,WSW,238,0.0,1.0,90,0.02,,,0.09,weatherlink.com 1.10,2013-05-09 19:52:00,
2013-05-09 16:07:00,62.2,58.0,28.88,SSE,150,1.0,2.0,87,0.02,,,0.09,weatherlink.com 1.10,2013-05-09 20:07:00,
2013-05-09 16:22:00,63.1,59.0,28.87,SW,224,1.0,3.0,87,0.02,,,0.09,weatherlink.com 1.10,2013-05-09 20:22:00,
2013-05-09 16:37:00,64.1,60.0,28.86,NW,321,0.0,3.0,85,0.00,,,0.09,weatherlink.com 1.10,2013-05-09 20:37:00,
2013-05-09 16:52:00,64.8,59.0,28.86,NNE,28,1.0,2.0,81,0.00,,,0.09,weatherlink.com 1.10,2013-05-09 20:52:00,
2013-05-09 17:07:00,64.9,59.0,28.86,NE,38,0.0,4.0,82,0.00,,,0.09,weatherlink.com 1.10,2013-05-09 21:07:00,
2013-05-09 17:22:00,66.1,58.0,28.86,NNE,33,4.0,5.0,76,0.00,,,0.09,weatherlink.com 1.10,2013-05-09 21:22:00,
2013-05-09 17:37:00,65.9,60.0,28.86,NNE,31,2.0,5.0,80,0.00,,,0.09,weatherlink.com 1.10,2013-05-09 21:37:00,
2013-05-09 17:52:00,65.0,59.0,28.86,NNE,32,0.0,1.0,80,0.00,,,0.09,weatherlink.com 1.10,2013-05-09 21:52:00,
2013-05-09 18:07:00,64.3,58.0,28.85,NE,43,1.0,3.0,79,0.00,,,0.09,weatherlink.com 1.10,2013-05-09 22:07:00,
2013-05-09 18:22:00,64.0,57.0,28.85,NE,36,1.0,4.0,77,0.00,,,0.09,weatherlink.com 1.10,2013-05-09 22:22:00,
2013-05-09 18:37:00,63.9,56.0,28.86,NE,49,1.0,2.0,75,0.00,,,0.09,weatherlink.com 1.10,2013-05-09 22:37:00,
2013-05-09 18:52:00,63.2,56.0,28.86,NE,51,0.0,1.0,77,0.00,,,0.09,weatherlink.com 1.10,2013-05-09 22:52:00,
2013-05-09 19:07:00,62.4,56.0,28.87,NE,48,1.0,3.0,80,0.00,,,0.09,weatherlink.com 1.10,2013-05-09 23:07:00,
2013-05-09 19:22:00,60.9,53.0,28.88,WSW,246,2.0,7.0,75,0.00,,,0.09,weatherlink.com 1.10,2013-05-09 23:22:00,
2013-05-09 19:37:00,59.4,53.0,28.88,SW,232,2.0,4.0,79,0.00,,,0.09,weatherlink.com 1.10,2013-05-09 23:37:00,
2013-05-09 19:52:00,57.2,54.0,28.89,WSW,246,3.0,3.0,89,0.00,,,0.09,weatherlink.com 1.10,2013-05-09 23:52:00,
2013-05-09 20:07:00,56.5,55.0,28.89,WSW,247,1.0,5.0,93,0.01,,,0.10,weatherlink.com 1.10,2013-05-10 00:07:00,
2013-05-09 20:22:00,56.4,55.0,28.89,WSW,247,0.0,1.0,93,0.01,,,0.10,weatherlink.com 1.10,2013-05-10 00:22:00,
2013-05-09 20:37:00,56.7,55.0,28.89,WSW,247,0.0,1.0,94,0.01,,,0.10,weatherlink.com 1.10,2013-05-10 00:37:00,
2013-05-09 20:52:00,56.6,55.0,28.90,NNE,26,0.0,3.0,94,0.02,,,0.11,weatherlink.com 1.10,2013-05-10 00:52:00,
2013-05-09 21:07:00,56.3,55.0,28.90,NNE,26,0.0,1.0,95,0.02,,,0.12,weatherlink.com 1.10,2013-05-10 01:07:00,
2013-05-09 21:22:00,56.2,55.0,28.90,NNE,26,0.0,0.0,95,0.02,,,0.12,weatherlink.com 1.10,2013-05-10 01:22:00,
2013-05-09 21:37:00,55.8,54.0,28.90,NNE,26,0.0,0.0,95,0.03,,,0.13,weatherlink.com 1.10,2013-05-10 01:37:00,
2013-05-09 21:52:00,55.7,54.0,28.90,North,360,1.0,2.0,95,0.02,,,0.13,weatherlink.com 1.10,2013-05-10 01:52:00,
2013-05-09 22:07:00,55.5,54.0,28.90,North,360,0.0,1.0,95,0.01,,,0.13,weatherlink.com 1.10,2013-05-10 02:07:00,
2013-05-09 22:22:00,55.3,54.0,28.89,North,360,0.0,0.0,96,0.01,,,0.13,weatherlink.com 1.10,2013-05-10 02:22:00,
2013-05-09 22:37:00,55.0,54.0,28.89,North,360,0.0,1.0,96,0.01,,,0.14,weatherlink.com 1.10,2013-05-10 02:37:00,
2013-05-09 22:52:00,54.8,54.0,28.89,North,360,0.0,1.0,96,0.01,,,0.14,weatherlink.com 1.10,2013-05-10 02:52:00,
2013-05-09 23:07:00,54.0,53.0,28.89,North,360,0.0,1.0,95,0.01,,,0.14,weatherlink.com 1.10,2013-05-10 03:07:00,
2013-05-09 23:22:00,53.7,53.0,28.88,North,360,0.0,1.0,96,0.01,,,0.14,weatherlink.com 1.10,2013-05-10 03:22:00,
2013-05-09 23:37:00,53.3,52.0,28.88,North,360,0.0,1.0,95,0.00,,,0.14,weatherlink.com 1.10,2013-05-10 03:37:00,
2013-05-09 23:52:00,53.1,52.0,28.88,North,360,0.0,0.0,96,0.00,,,0.14,weatherlink.com 1.10,2013-05-10 03:52:00,